Location: Grand Rapids
(42.9630°N, 85.6680°W)
Time: 02:55:20
(UTC-04:00)

S-56A Canister/Altair - Pass Details

Date: 01 June 2024
Orbit: 637 x 2489 km, 38.9° (Epoch: 22 June)

Event Time Altitude Azimuth Distance (km) Brightness Sun altitude
Rises 09:35:36 0° 281° (W) 5,917 11.6 35.7°
Reaches altitude 10° 09:39:54 10° 277° (W) 4,718 11.1 36.5°
Maximum altitude 09:51:51 52° 207° (SSW) 2,022 10.0 38.6°
Drops below altitude 10° 10:00:00 10° 134° (SE) 3,269 11.5 40.1°
Sets 10:02:28 0° 129° (SE) 4,018 11.9 40.6°
